Location: Copper Mountain Observatory
(34.1350°N, 116.3120°W)
Time: 05:04:37
(UTC-07:00)

Daily predictions for brighter satellites

Satellite Brightness Start Highest point End
(mag) Time Altitude Azimuth Time Altitude Azimuth Time Altitude Azimuth
SL-16 R/B 4.5 03:20:39 19° NNW 03:20:39 19° NNW 03:22:17 10° NNW
ADEOS Rocket 4.5 03:29:46 10° N 03:32:02 26° N 03:32:02 26° N
Okean O Rocket 4.1 03:35:48 10° NE 03:38:14 18° E 03:38:14 18° E
Resurs 1-4 Rocket 4.3 03:39:37 10° N 03:40:53 17° N 03:40:53 17° N
CZ-2D R/B 4.1 03:49:14 10° N 03:50:56 19° NNW 03:50:56 19° NNW
Cosmos 2219 Rocket 2.9 03:59:35 46° ESE 03:59:37 46° ESE 04:04:56 10° NE
USA 229 DEB 3.9 04:00:08 58° SE 04:00:47 61° ESE 04:07:34 10° NE
USA 229 3.9 04:00:13 57° SE 04:00:53 60° ESE 04:07:39 10° NE
ADEOS II 3.4 04:00:01 10° NNE 04:04:48 35° E 04:06:32 28° SE
Cosmos 2184 Rocket 4.2 03:59:30 10° N 04:04:35 62° NNW 04:04:35 62° NNW
Cosmos 1844 Rocket 3.8 04:03:44 10° N 04:08:59 41° ENE 04:14:12 10° SE
COSMOS 2428 3.0 04:11:13 57° N 04:11:13 57° N 04:15:47 10° NNE
MOS 1 Rocket 4.4 04:10:34 10° NNE 04:13:16 35° NNE 04:13:16 35° NNE
Cosmos 2360 Rocket 3.8 04:21:07 22° NNW 04:21:07 22° NNW 04:23:52 10° N
OTV 4 3.7 04:30:09 12° E 04:30:09 12° E 04:30:27 10° E
Cosmos 468 Rocket 4.4 04:28:12 47° SSE 04:29:26 60° ESE 04:34:34 10° NNE
Cosmos 2278 Rocket 4.3 04:25:11 10° N 04:29:53 26° ENE 04:34:32 10° ESE
Cosmos 2237 Rocket 3.0 04:27:56 28° SSE 04:30:39 49° ESE 04:36:07 10° NNE
MOS 1-B 4.5 04:26:19 10° N 04:31:45 56° WNW 04:31:45 56° WNW
Okean 1-7 Rocket 4.5 04:30:47 33° SE 04:32:24 48° E 04:36:43 10° NNE
ATLAS 5 CENTAUR R/B 4.0 04:28:29 10° NNW 04:33:59 34° NE 04:39:50 10° ESE
Cosmos 1666 4.2 04:30:51 10° NNE 04:34:26 36° E 04:38:02 10° SSE
Cosmos 2154 Rocket 3.9 04:33:51 10° N 04:40:05 88° W 04:46:17 10° S
Meteor 2-13 Rocket 4.4 04:35:08 10° NNW 04:41:05 55° W 04:41:26 54° WSW
Meteor 1-19 Rocket 4.1 04:41:03 44° SSW 04:42:58 84° W 04:48:44 10° N
Meteor 2-4 Rocket 3.8 04:41:10 19° S 04:45:10 71° E 04:50:37 10° NNE
Cosmos 1743 3.8 04:43:23 10° N 04:45:43 35° NNW 04:45:43 35° NNW
Nadezhda 1 Rocket 4.5 04:51:29 37° WNW 04:51:29 37° WNW 04:56:49 10° NNW
Cosmos 1763 Rocket 4.2 04:49:04 13° S 04:53:22 50° ESE 04:58:19 10° NNE
Cosmos 2333 Rocket 2.1 04:55:15 40° SW 04:57:17 69° WNW 05:03:01 10° NNE
OAO 3 Copernicus 4.2 04:56:35 47° WNW 04:58:02 84° N 05:03:05 10° E
Cosmos 2181 Rocket 3.9 04:53:03 13° S 04:58:36 83° W 05:04:57 10° N
Cosmos 1025 Rocket 3.0 04:57:08 23° S 04:59:47 81° E 05:04:12 10° N
Meteor PRIRODA 4.2 04:56:36 10° NNE 05:00:19 58° E 05:02:55 18° S
GPS 2-04 Rocket1 2.5 04:59:57 68° SW 05:00:25 82° SSE 05:04:19 10° E
PAYLOAD B 4.3 04:58:47 10° N 05:04:16 58° WNW 05:07:04 29° SW
Cosmos 1937 Rocket 4.3 04:59:08 10° N 05:04:20 52° ENE 05:09:28 10° SSE
EO 1 Del DPAF 3.1 05:02:56 13° S 05:06:15 69° WSW 05:10:06 10° NNW
Meteor 1-31 Rocket 3.6 05:02:59 10° NNE 05:06:42 49° E 05:10:23 10° S
Cosmos 841 Rocket 4.0 05:04:09 10° S 05:09:12 58° ESE 05:14:15 10° NNE
Okean 2 3.5 05:06:14 10° S 05:10:22 75° E 05:14:33 10° N
IRS-1C Rocket 4.4 05:09:18 10° N 05:14:18 45° WNW 05:16:45 27° SW
NOSS 0 Rocket 4.0 05:10:55 26° SW 05:14:24 58° WNW 05:20:28 10° NNE
Tiangong 2 1.0 05:14:46 61° SW 05:14:49 61° SSW 05:17:53 10° SE
Gblst 52 Del rocket 4.4 05:10:49 17° WNW 05:15:18 60° SW 05:21:44 10° SSE
Okean O Rocket 2.4 05:11:27 10° N 05:15:22 31° WNW 05:15:42 31° W
Iridium 2 4.2 05:12:11 10° N 05:15:59 60° E 05:19:46 10° SSE
Hubble Space Telescope 1.8 05:16:15 27° SSW 05:17:30 32° S 05:21:13 10° ESE
ERS-2 2.1 05:14:58 10° NNE 05:18:40 86° ESE 05:22:09 11° SSW
Cosmos 1892 Rocket 3.9 05:14:57 10° S 05:19:15 64° E 05:23:34 10° NNE
MTI 4.3 05:21:09 38° W 05:21:09 38° W 05:23:57 10° NNW
Aureole 2 Rocket 2.9 05:21:50 37° W 05:22:19 39° WNW 05:25:31 10° N
Cosmos 2341 Rocket 4.1 05:18:05 10° NNW 05:24:04 51° W 05:30:01 10° SSW
Cosmos 1814 Rocket 4.1 05:20:45 21° SW 05:24:05 53° WNW 05:29:08 10° N
Cosmos 1844 3.7 05:18:43 10° NNW 05:24:18 56° WSW 05:29:49 10° S
CZ-4B R/B 4.3 05:24:07 10° NNW 05:26:02 18° NW 05:26:02 18° NW
Cosmos 2218 Rocket 4.1 05:20:37 10° N 05:27:00 81° E 05:33:18 10° S
Feng Yun 1-1 Rocket 4.4 05:22:11 10° NNE 05:28:02 85° ESE 05:33:40 10° SSW
CZ-4B R/B 4.1 05:24:02 10° N 05:28:33 87° WNW 05:32:59 10° SSW
SL-16 R/B 2.6 05:23:08 10° S 05:28:43 65° ESE 05:34:20 10° NNE
DELTA 2 R/B (1) 4.2 05:25:34 16° WNW 05:29:47 48° N 05:35:09 10° E
CZ-4B R/B 3.9 05:26:38 10° N 05:31:40 35° WNW 05:35:23 16° SW
Okean-O 2.5 05:28:43 10° N 05:33:09 79° WNW 05:37:34 10° SSW
Cosmos 2298 Rocket 4.0 05:28:51 10° NNW 05:34:08 63° WSW 05:39:23 10° S
CZ-2C R/B 4.1 05:31:40 10° SSW 05:35:56 38° W 05:40:09 10° NNW
USA 215 3.3 05:30:14 10° SE 05:36:47 89° ENE 05:43:22 10° NW
Cosmos 1980 4.3 05:34:39 18° WSW 05:38:21 37° WNW 05:43:35 10° N
Cosmos 2219 Rocket 3.5 05:41:20 16° W 05:43:46 21° WNW 05:47:57 10° N
ADEOS II 3.2 05:40:09 10° NNW 05:44:17 24° WNW 05:47:30 14° WSW
GOES 2 Rocket 4.3 05:45:24 16° WSW 05:48:41 34° S 05:53:55 10° SE
Cosmos 1844 Rocket 3.7 05:48:24 10° NW 05:52:31 22° W 05:56:38 10° SSW
SKYMED 2 4.2 05:51:45 10° SSE 05:56:00 62° ENE 06:00:18 10° N
Cosmos 1346 2.9 05:53:23 10° SSW 05:56:10 55° W 05:58:58 10° N
Cosmos 2058 Rocket 3.0 05:57:28 10° NNW 06:01:55 70° W 06:06:17 10° S
OTV 4 0.7 06:01:12 12° W 06:03:41 51° NNW 06:06:23 10° ENE
NOSS 3-1 (A) 3.5 05:58:20 10° SW 06:03:57 57° NW 06:10:11 10° NNE
Cosmos 1441 Rocket 3.7 06:00:52 10° SSW 06:04:36 41° WNW 06:08:23 10° N
Cosmos 1515 4.2 06:01:48 10° SSW 06:05:24 39° W 06:09:02 10° N
NOSS 3-1 (C) 3.9 06:00:07 10° WSW 06:05:29 41° NW 06:11:26 10° NNE
Cosmos 304 Rocket 4.4 06:01:24 10° S 06:06:06 60° ESE 06:10:48 10° NNE
EXPRESS MD2 4.3 06:01:41 10° WSW 06:06:11 30° NW 06:08:52 10° NNE
Cosmos 1867 4.0 06:01:28 10° NW 06:06:28 38° WSW 06:11:24 10° S
Cosmos 990 Rocket 4.2 06:01:33 10° NNW 06:06:28 46° WSW 06:11:20 10° S
CZ-4C R/B 4.3 06:01:10 10° NNW 06:08:02 43° NE 06:15:28 10° ESE
Radarsat Rocket 3.9 06:04:25 10° NNE 06:10:16 76° WNW 06:16:08 10° SSW
Meteor 2-21 Rocket 4.5 06:04:09 10° N 06:10:22 78° W 06:16:32 10° S
Cosmos 2366 rocket 4.3 06:05:55 10° NNW 06:11:58 48° W 06:18:00 10° SSW
Cosmos 2278 Rocket 2.7 06:08:50 10° NW 06:13:59 37° WSW 06:19:07 10° S
Cosmos 1606 Rocket 4.5 06:11:08 10° NNW 06:14:56 28° W 06:18:43 10° SSW
Cosmos 2237 Rocket 3.6 06:10:47 10° WSW 06:14:57 21° WNW 06:19:09 10° N
Thor Agena Rocket 3.7 06:11:09 10° S 06:16:02 49° W 06:20:55 10° NNW
